Year,Month,Day,Hour,Minute,Value (Times are PST for temperature in C)
2018,08,06,00,00,18.80
2018,08,06,00,01,18.80
2018,08,06,00,02,18.80
2018,08,06,00,03,18.80
2018,08,06,00,04,18.70
2018,08,06,00,05,18.70
2018,08,06,00,06,18.70
2018,08,06,00,07,18.70
2018,08,06,00,08,18.70
2018,08,06,00,09,18.70
2018,08,06,00,10,18.60
2018,08,06,00,11,18.60
2018,08,06,00,12,18.60
2018,08,06,00,13,18.60
2018,08,06,00,14,18.60
2018,08,06,00,15,18.60
2018,08,06,00,16,18.60
2018,08,06,00,17,18.60
2018,08,06,00,18,18.50
2018,08,06,00,19,18.50
2018,08,06,00,20,18.50
2018,08,06,00,21,18.50
2018,08,06,00,22,18.50
2018,08,06,00,23,18.40
2018,08,06,00,24,18.40
2018,08,06,00,25,18.40
2018,08,06,00,26,18.40
2018,08,06,00,27,18.40
2018,08,06,00,28,18.30
2018,08,06,00,29,18.30
2018,08,06,00,30,18.30
2018,08,06,00,31,18.30
2018,08,06,00,32,18.30
2018,08,06,00,33,18.20
2018,08,06,00,34,18.20
2018,08,06,00,35,18.20
2018,08,06,00,36,18.20
2018,08,06,00,37,18.20
2018,08,06,00,38,18.20
2018,08,06,00,39,18.10
2018,08,06,00,40,18.10
2018,08,06,00,41,18.10
2018,08,06,00,42,18.10
2018,08,06,00,43,18.10
2018,08,06,00,44,18.10
2018,08,06,00,45,18.10
2018,08,06,00,46,18.10
2018,08,06,00,47,18.10
2018,08,06,00,48,18.10
2018,08,06,00,49,18.10
2018,08,06,00,50,18.00
2018,08,06,00,51,18.00
2018,08,06,00,52,18.00
2018,08,06,00,53,17.90
2018,08,06,00,54,17.90
2018,08,06,00,55,17.90
2018,08,06,00,56,17.80
2018,08,06,00,57,17.80
2018,08,06,00,58,17.80
2018,08,06,00,59,17.70
2018,08,06,01,00,17.70
2018,08,06,01,01,17.70
2018,08,06,01,02,17.70
2018,08,06,01,03,17.60
2018,08,06,01,04,17.60
2018,08,06,01,05,17.60
2018,08,06,01,06,17.60
2018,08,06,01,07,17.60
2018,08,06,01,08,17.50
2018,08,06,01,09,17.50
2018,08,06,01,10,17.50
2018,08,06,01,11,17.50
2018,08,06,01,12,17.50
2018,08,06,01,13,17.40
2018,08,06,01,14,17.40
2018,08,06,01,15,17.40
2018,08,06,01,16,17.40
2018,08,06,01,17,17.30
2018,08,06,01,18,17.30
2018,08,06,01,19,17.30
2018,08,06,01,20,17.30
2018,08,06,01,21,17.30
2018,08,06,01,22,17.30
2018,08,06,01,23,17.30
2018,08,06,01,24,17.30
2018,08,06,01,25,17.20
2018,08,06,01,26,17.20
2018,08,06,01,27,17.20
2018,08,06,01,28,17.20
2018,08,06,01,29,17.20
2018,08,06,01,30,17.20
2018,08,06,01,31,17.20
2018,08,06,01,32,17.20
2018,08,06,01,33,17.10
2018,08,06,01,34,17.10
2018,08,06,01,35,17.10
2018,08,06,01,36,17.10
2018,08,06,01,37,17.10
2018,08,06,01,38,17.00
2018,08,06,01,39,17.00
2018,08,06,01,40,17.00
2018,08,06,01,41,17.00
2018,08,06,01,42,17.00
2018,08,06,01,43,17.00
2018,08,06,01,44,17.00
2018,08,06,01,45,16.90
2018,08,06,01,46,16.90
2018,08,06,01,47,16.90
2018,08,06,01,48,16.90
2018,08,06,01,49,16.90
2018,08,06,01,50,16.90
2018,08,06,01,51,16.90
2018,08,06,01,52,16.90
2018,08,06,01,53,16.80
2018,08,06,01,54,16.80
2018,08,06,01,55,16.80
2018,08,06,01,56,16.80
2018,08,06,01,57,16.80
2018,08,06,01,58,16.80
2018,08,06,01,59,16.80
2018,08,06,02,00,16.80
2018,08,06,02,01,16.80
2018,08,06,02,02,16.80
2018,08,06,02,03,16.80
2018,08,06,02,04,16.80
2018,08,06,02,05,16.80
2018,08,06,02,06,16.80
2018,08,06,02,07,16.80
2018,08,06,02,08,16.80
2018,08,06,02,09,16.70
2018,08,06,02,10,16.70
2018,08,06,02,11,16.70
2018,08,06,02,12,16.70
2018,08,06,02,13,16.70
2018,08,06,02,14,16.70
2018,08,06,02,15,16.70
2018,08,06,02,16,16.70
2018,08,06,02,17,16.70
2018,08,06,02,18,16.70
2018,08,06,02,19,16.70
2018,08,06,02,20,16.70
2018,08,06,02,21,16.70
2018,08,06,02,22,16.70
2018,08,06,02,23,16.70
2018,08,06,02,24,16.70
2018,08,06,02,25,16.60
2018,08,06,02,26,16.60
2018,08,06,02,27,16.60
2018,08,06,02,28,16.60
2018,08,06,02,29,16.60
2018,08,06,02,30,16.50
2018,08,06,02,31,16.50
2018,08,06,02,32,16.50
2018,08,06,02,33,16.40
2018,08,06,02,34,16.40
2018,08,06,02,35,16.40
2018,08,06,02,36,16.40
2018,08,06,02,37,16.40
2018,08,06,02,38,16.40
2018,08,06,02,39,16.30
2018,08,06,02,40,16.30
2018,08,06,02,41,16.30
2018,08,06,02,42,16.30
2018,08,06,02,43,16.30
2018,08,06,02,44,16.30
2018,08,06,02,45,16.20
2018,08,06,02,46,16.20
2018,08,06,02,47,16.20
2018,08,06,02,48,16.20
2018,08,06,02,49,16.20
2018,08,06,02,50,16.10
2018,08,06,02,51,16.10
2018,08,06,02,52,16.10
2018,08,06,02,53,16.10
2018,08,06,02,54,16.00
2018,08,06,02,55,16.00
2018,08,06,02,56,16.00
2018,08,06,02,57,16.00
2018,08,06,02,58,16.00
2018,08,06,02,59,15.90
2018,08,06,03,00,15.90
2018,08,06,03,01,15.90
2018,08,06,03,02,15.90
2018,08,06,03,03,15.90
2018,08,06,03,04,15.90
2018,08,06,03,05,15.90
2018,08,06,03,06,15.90
2018,08,06,03,07,15.90
2018,08,06,03,08,15.90
2018,08,06,03,09,15.80
2018,08,06,03,10,15.80
2018,08,06,03,11,15.80
2018,08,06,03,12,15.80
2018,08,06,03,13,15.80
2018,08,06,03,14,15.80
2018,08,06,03,15,15.80
2018,08,06,03,16,15.80
2018,08,06,03,17,15.80
2018,08,06,03,18,15.80
2018,08,06,03,19,15.70
2018,08,06,03,20,15.70
2018,08,06,03,21,15.70
2018,08,06,03,22,15.70
2018,08,06,03,23,15.70
2018,08,06,03,24,15.70
2018,08,06,03,25,15.60
2018,08,06,03,26,15.60
2018,08,06,03,27,15.60
2018,08,06,03,28,15.60
2018,08,06,03,29,15.60
2018,08,06,03,30,15.50
2018,08,06,03,31,15.50
2018,08,06,03,32,15.50
2018,08,06,03,33,15.50
2018,08,06,03,34,15.50
2018,08,06,03,35,15.50
2018,08,06,03,36,15.50
2018,08,06,03,37,15.50
2018,08,06,03,38,15.40
2018,08,06,03,39,15.40
2018,08,06,03,40,15.40
2018,08,06,03,41,15.40
2018,08,06,03,42,15.40
2018,08,06,03,43,15.40
2018,08,06,03,44,15.40
2018,08,06,03,45,15.40
2018,08,06,03,46,15.40
2018,08,06,03,47,15.40
2018,08,06,03,48,15.40
2018,08,06,03,49,15.40
2018,08,06,03,50,15.40
2018,08,06,03,51,15.40
2018,08,06,03,52,15.40
2018,08,06,03,53,15.40
2018,08,06,03,54,15.40
2018,08,06,03,55,15.50
2018,08,06,03,56,15.50
2018,08,06,03,57,15.40
2018,08,06,03,58,15.40
2018,08,06,03,59,15.40
2018,08,06,04,00,15.40
2018,08,06,04,01,15.40
2018,08,06,04,02,15.40
2018,08,06,04,03,15.40
2018,08,06,04,04,15.40
2018,08,06,04,05,15.40
2018,08,06,04,06,15.40
2018,08,06,04,07,15.30
2018,08,06,04,08,15.40
2018,08,06,04,09,15.30
2018,08,06,04,10,15.40
2018,08,06,04,11,15.40
2018,08,06,04,12,15.40
2018,08,06,04,13,15.30
2018,08,06,04,14,15.30
2018,08,06,04,15,15.30
2018,08,06,04,16,15.30
2018,08,06,04,17,15.30
2018,08,06,04,18,15.30
2018,08,06,04,19,15.30
2018,08,06,04,20,15.30
2018,08,06,04,21,15.30
2018,08,06,04,22,15.30
2018,08,06,04,23,15.20
2018,08,06,04,24,15.30
2018,08,06,04,25,15.20
2018,08,06,04,26,15.30
2018,08,06,04,27,15.20
2018,08,06,04,28,15.20
2018,08,06,04,29,15.20
2018,08,06,04,30,15.20
2018,08,06,04,31,15.20
2018,08,06,04,32,15.20
2018,08,06,04,33,15.20
2018,08,06,04,34,15.20
2018,08,06,04,35,15.20
2018,08,06,04,36,15.20
2018,08,06,04,37,15.20
2018,08,06,04,38,15.20
2018,08,06,04,39,15.20
2018,08,06,04,40,15.20
2018,08,06,04,41,15.10
2018,08,06,04,42,15.10
2018,08,06,04,43,15.10
2018,08,06,04,44,15.10
2018,08,06,04,45,15.10
2018,08,06,04,46,15.00
2018,08,06,04,47,15.00
2018,08,06,04,48,15.00
2018,08,06,04,49,15.00
2018,08,06,04,50,14.90
2018,08,06,04,51,14.90
2018,08,06,04,52,14.90
2018,08,06,04,53,14.90
2018,08,06,04,54,14.90
2018,08,06,04,55,14.90
2018,08,06,04,56,14.90
2018,08,06,04,57,14.90
2018,08,06,04,58,14.90
2018,08,06,04,59,14.90
2018,08,06,05,00,14.90
2018,08,06,05,01,14.80
2018,08,06,05,02,14.90
2018,08,06,05,03,14.90
2018,08,06,05,04,14.80
2018,08,06,05,05,14.80
2018,08,06,05,06,14.80
2018,08,06,05,07,14.80
2018,08,06,05,08,14.80
2018,08,06,05,09,14.80
2018,08,06,05,10,14.80
2018,08,06,05,11,14.80
2018,08,06,05,12,14.80
2018,08,06,05,13,14.80
2018,08,06,05,14,14.70
2018,08,06,05,15,14.70
2018,08,06,05,16,14.70
2018,08,06,05,17,14.70
2018,08,06,05,18,14.70
2018,08,06,05,19,14.70
2018,08,06,05,20,14.70
2018,08,06,05,21,14.70
2018,08,06,05,22,14.70
2018,08,06,05,23,14.60
2018,08,06,05,24,14.60
2018,08,06,05,25,14.60
2018,08,06,05,26,14.60
2018,08,06,05,27,14.60
2018,08,06,05,28,14.60
2018,08,06,05,29,14.60
2018,08,06,05,30,14.60
2018,08,06,05,31,14.60
2018,08,06,05,32,14.60
2018,08,06,05,33,14.60
2018,08,06,05,34,14.60
2018,08,06,05,35,14.60
2018,08,06,05,36,14.60
2018,08,06,05,37,14.60
2018,08,06,05,38,14.60
2018,08,06,05,39,14.60
2018,08,06,05,40,14.60
2018,08,06,05,41,14.60
2018,08,06,05,42,14.60
2018,08,06,05,43,14.60
2018,08,06,05,44,14.60
2018,08,06,05,45,14.60
2018,08,06,05,46,14.60
2018,08,06,05,47,14.60
2018,08,06,05,48,14.50
2018,08,06,05,49,14.50
2018,08,06,05,50,14.60
2018,08,06,05,51,14.50
2018,08,06,05,52,14.50
2018,08,06,05,53,14.60
2018,08,06,05,54,14.60
2018,08,06,05,55,14.60
2018,08,06,05,56,14.60
2018,08,06,05,57,14.60
2018,08,06,05,58,14.60
2018,08,06,05,59,14.60
2018,08,06,06,00,14.60
2018,08,06,06,01,14.60
2018,08,06,06,02,14.60
2018,08,06,06,03,14.60
2018,08,06,06,04,14.60
2018,08,06,06,05,14.50
2018,08,06,06,06,14.60
2018,08,06,06,07,14.50
2018,08,06,06,08,14.50
2018,08,06,06,09,14.50
2018,08,06,06,10,14.50
2018,08,06,06,11,14.50
2018,08,06,06,12,14.50
2018,08,06,06,13,14.50
2018,08,06,06,14,14.50
2018,08,06,06,15,14.50
2018,08,06,06,16,14.50
2018,08,06,06,17,14.50
2018,08,06,06,18,14.50
2018,08,06,06,19,14.50
2018,08,06,06,20,14.50
2018,08,06,06,21,14.50
2018,08,06,06,22,14.50
2018,08,06,06,23,14.50
2018,08,06,06,24,14.40
2018,08,06,06,25,14.40
2018,08,06,06,26,14.50
2018,08,06,06,27,14.50
2018,08,06,06,28,14.50
2018,08,06,06,29,14.50
2018,08,06,06,30,14.50
2018,08,06,06,31,14.50
2018,08,06,06,32,14.50
2018,08,06,06,33,14.50
2018,08,06,06,34,14.50
2018,08,06,06,35,14.50
2018,08,06,06,36,14.50
2018,08,06,06,37,14.50
2018,08,06,06,38,14.50
2018,08,06,06,39,14.50
2018,08,06,06,40,14.50
2018,08,06,06,41,14.50
2018,08,06,06,42,14.60
2018,08,06,06,43,14.60
2018,08,06,06,44,14.60
2018,08,06,06,45,14.60
2018,08,06,06,46,14.60
2018,08,06,06,47,14.60
2018,08,06,06,48,14.60
2018,08,06,06,49,14.60
2018,08,06,06,50,14.60
2018,08,06,06,51,14.60
2018,08,06,06,52,14.60
2018,08,06,06,53,14.60
2018,08,06,06,54,14.70
2018,08,06,06,55,14.70
2018,08,06,06,56,14.70
2018,08,06,06,57,14.70
2018,08,06,06,58,14.70
2018,08,06,06,59,14.70
2018,08,06,07,00,14.70
2018,08,06,07,01,14.70
2018,08,06,07,02,14.70
2018,08,06,07,03,14.70
2018,08,06,07,04,14.80
2018,08,06,07,05,14.80
2018,08,06,07,06,14.80
2018,08,06,07,07,14.80
2018,08,06,07,08,14.80
2018,08,06,07,09,14.80
2018,08,06,07,10,14.80
2018,08,06,07,11,14.80
2018,08,06,07,12,14.80
2018,08,06,07,13,14.80
2018,08,06,07,14,14.90
2018,08,06,07,15,14.90
2018,08,06,07,16,14.90
2018,08,06,07,17,14.90
2018,08,06,07,18,14.90
2018,08,06,07,19,14.90
2018,08,06,07,20,14.90
2018,08,06,07,21,15.00
2018,08,06,07,22,15.00
2018,08,06,07,23,15.00
2018,08,06,07,24,15.00
2018,08,06,07,25,15.00
2018,08,06,07,26,15.10
2018,08,06,07,27,15.10
2018,08,06,07,28,15.10
2018,08,06,07,29,15.10
2018,08,06,07,30,15.10
2018,08,06,07,31,15.20
2018,08,06,07,32,15.20
2018,08,06,07,33,15.20
2018,08,06,07,34,15.30
2018,08,06,07,35,15.40
2018,08,06,07,36,15.40
2018,08,06,07,37,15.40
2018,08,06,07,38,15.40
2018,08,06,07,39,15.50
2018,08,06,07,40,15.50
2018,08,06,07,41,15.60
2018,08,06,07,42,15.60
2018,08,06,07,43,15.70
2018,08,06,07,44,15.70
2018,08,06,07,45,15.80
2018,08,06,07,46,15.90
2018,08,06,07,47,15.90
2018,08,06,07,48,16.00
2018,08,06,07,49,16.10
2018,08,06,07,50,16.10
2018,08,06,07,51,16.20
2018,08,06,07,52,16.20
2018,08,06,07,53,16.30
2018,08,06,07,54,16.30
2018,08,06,07,55,16.40
2018,08,06,07,56,16.40
2018,08,06,07,57,16.50
2018,08,06,07,58,16.50
2018,08,06,07,59,16.60
2018,08,06,08,00,16.60
2018,08,06,08,01,16.70
2018,08,06,08,02,16.70
2018,08,06,08,03,16.80
2018,08,06,08,04,16.90
2018,08,06,08,05,16.90
2018,08,06,08,06,17.00
2018,08,06,08,07,17.10
2018,08,06,08,08,17.20
2018,08,06,08,09,17.20
2018,08,06,08,10,17.40
2018,08,06,08,11,17.40
2018,08,06,08,12,17.50
2018,08,06,08,13,17.60
2018,08,06,08,14,17.60
2018,08,06,08,15,17.70
2018,08,06,08,16,17.80
2018,08,06,08,17,17.80
2018,08,06,08,18,17.90
2018,08,06,08,19,18.00
2018,08,06,08,20,18.00
2018,08,06,08,21,18.10
2018,08,06,08,22,18.20
2018,08,06,08,23,18.20
2018,08,06,08,24,18.30
2018,08,06,08,25,18.40
2018,08,06,08,26,18.40
2018,08,06,08,27,18.50
2018,08,06,08,28,18.60
2018,08,06,08,29,18.70
2018,08,06,08,30,18.80
2018,08,06,08,31,18.90
2018,08,06,08,32,18.90
2018,08,06,08,33,19.00
2018,08,06,08,34,19.10
2018,08,06,08,35,19.20
2018,08,06,08,36,19.30
2018,08,06,08,37,19.40
2018,08,06,08,38,19.50
2018,08,06,08,39,19.70
2018,08,06,08,40,19.90
2018,08,06,08,41,20.00
2018,08,06,08,42,20.20
2018,08,06,08,43,20.30
2018,08,06,08,44,20.40
2018,08,06,08,45,20.40
2018,08,06,08,46,20.40
2018,08,06,08,47,20.50
2018,08,06,08,48,20.50
2018,08,06,08,49,20.50
2018,08,06,08,50,20.60
2018,08,06,08,51,20.60
2018,08,06,08,52,20.70
2018,08,06,08,53,20.80
2018,08,06,08,54,20.90
2018,08,06,08,55,21.00
2018,08,06,08,56,21.10
2018,08,06,08,57,21.20
2018,08,06,08,58,21.30
2018,08,06,08,59,21.30
2018,08,06,09,00,21.40
2018,08,06,09,01,21.50
2018,08,06,09,02,21.60
2018,08,06,09,03,21.70
2018,08,06,09,04,21.80
2018,08,06,09,05,21.90
2018,08,06,09,06,22.10
2018,08,06,09,07,22.20
2018,08,06,09,08,22.30
2018,08,06,09,09,22.40
2018,08,06,09,10,22.40
2018,08,06,09,11,22.50
2018,08,06,09,12,22.60
2018,08,06,09,13,22.70
2018,08,06,09,14,22.80
2018,08,06,09,15,22.90
2018,08,06,09,16,23.00
2018,08,06,09,17,23.00
2018,08,06,09,18,23.00
2018,08,06,09,19,23.00
2018,08,06,09,20,23.10
2018,08,06,09,21,23.10
2018,08,06,09,22,23.10
2018,08,06,09,23,23.20
2018,08,06,09,24,23.20
2018,08,06,09,25,23.20
2018,08,06,09,26,23.30
2018,08,06,09,27,23.30
2018,08,06,09,28,23.30
2018,08,06,09,29,23.30
2018,08,06,09,30,23.40
2018,08,06,09,31,23.40
2018,08,06,09,32,23.50
2018,08,06,09,33,23.60
2018,08,06,09,34,23.70
2018,08,06,09,35,23.70
2018,08,06,09,36,23.80
2018,08,06,09,37,23.80
2018,08,06,09,38,23.90
2018,08,06,09,39,23.90
2018,08,06,09,40,24.00
2018,08,06,09,41,24.00
2018,08,06,09,42,24.10
2018,08,06,09,43,24.10
2018,08,06,09,44,24.10
2018,08,06,09,45,24.10
2018,08,06,09,46,24.10
2018,08,06,09,47,24.10
2018,08,06,09,48,24.10
2018,08,06,09,49,24.20
2018,08,06,09,50,24.20
2018,08,06,09,51,24.20
2018,08,06,09,52,24.20
2018,08,06,09,53,24.30
2018,08,06,09,54,24.40
2018,08,06,09,55,24.50
2018,08,06,09,56,24.50
2018,08,06,09,57,24.50
2018,08,06,09,58,24.50
2018,08,06,09,59,24.50
2018,08,06,10,00,24.50
2018,08,06,10,01,24.50
2018,08,06,10,02,24.60
2018,08,06,10,03,24.70
2018,08,06,10,04,24.70
2018,08,06,10,05,24.70
2018,08,06,10,06,24.80
2018,08,06,10,07,24.80
2018,08,06,10,08,24.80
2018,08,06,10,09,24.80
2018,08,06,10,10,24.80
2018,08,06,10,11,24.80
2018,08,06,10,12,24.70
2018,08,06,10,13,24.80
2018,08,06,10,14,24.80
2018,08,06,10,15,24.80
2018,08,06,10,16,24.80
2018,08,06,10,17,24.80
2018,08,06,10,18,24.90
2018,08,06,10,19,25.00
2018,08,06,10,20,25.00
2018,08,06,10,21,25.00
2018,08,06,10,22,25.10
2018,08,06,10,23,25.00
2018,08,06,10,24,25.00
2018,08,06,10,25,25.00
2018,08,06,10,26,25.00
2018,08,06,10,27,25.00
2018,08,06,10,28,25.10
2018,08,06,10,29,25.20
2018,08,06,10,30,25.30
2018,08,06,10,31,25.30
2018,08,06,10,32,25.30
2018,08,06,10,33,25.30
2018,08,06,10,34,25.40
2018,08,06,10,35,25.40
2018,08,06,10,36,25.40
2018,08,06,10,37,25.40
2018,08,06,10,38,25.40
2018,08,06,10,39,25.40
2018,08,06,10,40,25.40
2018,08,06,10,41,25.40
2018,08,06,10,42,25.40
2018,08,06,10,43,25.30
2018,08,06,10,44,25.20
2018,08,06,10,45,25.20
2018,08,06,10,46,25.10
2018,08,06,10,47,25.10
2018,08,06,10,48,25.10
2018,08,06,10,49,25.10
2018,08,06,10,50,25.20
2018,08,06,10,51,25.20
2018,08,06,10,52,25.20
2018,08,06,10,53,25.30
2018,08,06,10,54,25.40
2018,08,06,10,55,25.40
2018,08,06,10,56,25.40
2018,08,06,10,57,25.50
2018,08,06,10,58,25.50
2018,08,06,10,59,25.40
2018,08,06,11,00,25.40
2018,08,06,11,01,25.20
2018,08,06,11,02,25.10
2018,08,06,11,03,25.00
2018,08,06,11,04,24.90
2018,08,06,11,05,24.80
2018,08,06,11,06,24.80
2018,08,06,11,07,24.70
2018,08,06,11,08,24.60
2018,08,06,11,09,24.60
2018,08,06,11,10,24.60
2018,08,06,11,11,24.70
2018,08,06,11,12,24.80
2018,08,06,11,13,24.90
2018,08,06,11,14,25.10
2018,08,06,11,15,25.10
2018,08,06,11,16,25.20
2018,08,06,11,17,25.20
2018,08,06,11,18,25.30
2018,08,06,11,19,25.30
2018,08,06,11,20,25.40
2018,08,06,11,21,25.40
2018,08,06,11,22,25.50
2018,08,06,11,23,25.50
2018,08,06,11,24,25.40
2018,08,06,11,25,25.50
2018,08,06,11,26,25.50
2018,08,06,11,27,25.50
2018,08,06,11,28,25.40
2018,08,06,11,29,25.40
2018,08,06,11,30,25.50
2018,08,06,11,31,25.50
2018,08,06,11,32,25.50
2018,08,06,11,33,25.50
2018,08,06,11,34,25.50
2018,08,06,11,35,25.40
2018,08,06,11,36,25.40
2018,08,06,11,37,25.40
2018,08,06,11,38,25.40
2018,08,06,11,39,25.40
2018,08,06,11,40,25.40
2018,08,06,11,41,25.30
2018,08,06,11,42,25.30
2018,08,06,11,43,25.30
2018,08,06,11,44,25.30
2018,08,06,11,45,25.40
2018,08,06,11,46,25.50
2018,08,06,11,47,25.50
2018,08,06,11,48,25.50
2018,08,06,11,49,25.50
2018,08,06,11,50,25.50
2018,08,06,11,51,25.50
2018,08,06,11,52,25.50
2018,08,06,11,53,25.40
2018,08,06,11,54,25.40
2018,08,06,11,55,25.50
2018,08,06,11,56,25.50
2018,08,06,11,57,25.60
2018,08,06,11,58,25.50
2018,08,06,11,59,25.60
2018,08,06,12,00,25.60
2018,08,06,12,01,25.50
2018,08,06,12,02,25.50
2018,08,06,12,03,25.40
2018,08,06,12,04,25.40
2018,08,06,12,05,25.40
2018,08,06,12,06,25.40
2018,08,06,12,07,25.40
2018,08,06,12,08,25.50
2018,08,06,12,09,25.60
2018,08,06,12,10,25.60
2018,08,06,12,11,25.60
2018,08,06,12,12,25.70
2018,08,06,12,13,25.80
2018,08,06,12,14,25.80
2018,08,06,12,15,25.90
2018,08,06,12,16,25.90
2018,08,06,12,17,25.90
2018,08,06,12,18,25.90
2018,08,06,12,19,25.80
2018,08,06,12,20,25.70
2018,08,06,12,21,25.70
2018,08,06,12,22,25.60
2018,08,06,12,23,25.60
2018,08,06,12,24,25.60
2018,08,06,12,25,25.60
2018,08,06,12,26,25.60
2018,08,06,12,27,25.50
2018,08,06,12,28,25.40
2018,08,06,12,29,25.40
2018,08,06,12,30,25.40
2018,08,06,12,31,25.40
2018,08,06,12,32,25.40
2018,08,06,12,33,25.50
2018,08,06,12,34,25.50
2018,08,06,12,35,25.60
2018,08,06,12,36,25.70
2018,08,06,12,37,25.70
2018,08,06,12,38,25.70
2018,08,06,12,39,25.80
2018,08,06,12,40,25.90
2018,08,06,12,41,25.80
2018,08,06,12,42,25.80
2018,08,06,12,43,25.80
2018,08,06,12,44,25.80
2018,08,06,12,45,25.70
2018,08,06,12,46,25.60
2018,08,06,12,47,25.60
2018,08,06,12,48,25.70
2018,08,06,12,49,25.70
2018,08,06,12,50,25.80
2018,08,06,12,51,25.90
2018,08,06,12,52,25.90
2018,08,06,12,53,25.90
2018,08,06,12,54,25.80
2018,08,06,12,55,25.80
2018,08,06,12,56,25.80
2018,08,06,12,57,25.80
2018,08,06,12,58,25.80
2018,08,06,12,59,25.80
2018,08,06,13,00,25.70
2018,08,06,13,01,25.70
2018,08,06,13,02,25.80
2018,08,06,13,03,25.80
2018,08,06,13,04,25.90
2018,08,06,13,05,26.00
2018,08,06,13,06,25.90
2018,08,06,13,07,26.00
2018,08,06,13,08,26.00
2018,08,06,13,09,26.00
2018,08,06,13,10,25.90
2018,08,06,13,11,25.90
2018,08,06,13,12,25.90
2018,08,06,13,13,25.80
2018,08,06,13,14,25.80
2018,08,06,13,15,25.70
2018,08,06,13,16,25.80
2018,08,06,13,17,25.80
2018,08,06,13,18,25.90
2018,08,06,13,19,25.90
2018,08,06,13,20,26.00
2018,08,06,13,21,26.10
2018,08,06,13,22,26.10
2018,08,06,13,23,26.20
2018,08,06,13,24,26.20
2018,08,06,13,25,26.20
2018,08,06,13,26,26.20
2018,08,06,13,27,26.30
2018,08,06,13,28,26.30
2018,08,06,13,29,26.20
2018,08,06,13,30,26.10
2018,08,06,13,31,26.00
2018,08,06,13,32,26.00
2018,08,06,13,33,25.90
2018,08,06,13,34,25.80
2018,08,06,13,35,25.70
2018,08,06,13,36,25.70
2018,08,06,13,37,25.70
2018,08,06,13,38,25.60
2018,08,06,13,39,25.70
2018,08,06,13,40,25.70
2018,08,06,13,41,25.80
2018,08,06,13,42,25.80
2018,08,06,13,43,25.90
2018,08,06,13,44,26.10
2018,08,06,13,45,26.10
2018,08,06,13,46,26.20
2018,08,06,13,47,26.20
2018,08,06,13,48,26.30
2018,08,06,13,49,26.30
2018,08,06,13,50,26.40
2018,08,06,13,51,26.50
2018,08,06,13,52,26.60
2018,08,06,13,53,26.70
2018,08,06,13,54,26.70
2018,08,06,13,55,26.80
2018,08,06,13,56,26.80
2018,08,06,13,57,26.80
2018,08,06,13,58,26.80
2018,08,06,13,59,26.70
2018,08,06,14,00,26.60
2018,08,06,14,01,26.60
2018,08,06,14,02,26.50
2018,08,06,14,03,26.50
2018,08,06,14,04,26.50
2018,08,06,14,05,26.50
2018,08,06,14,06,26.60
2018,08,06,14,07,26.60
2018,08,06,14,08,26.70
2018,08,06,14,09,26.70
2018,08,06,14,10,26.80
2018,08,06,14,11,26.90
2018,08,06,14,12,27.00
2018,08,06,14,13,27.10
2018,08,06,14,14,27.20
2018,08,06,14,15,27.30
2018,08,06,14,16,27.30
2018,08,06,14,17,27.30
2018,08,06,14,18,27.20
2018,08,06,14,19,27.10
2018,08,06,14,20,27.00
2018,08,06,14,21,26.90
2018,08,06,14,22,26.90
2018,08,06,14,23,26.90
2018,08,06,14,24,26.90
2018,08,06,14,25,27.00
2018,08,06,14,26,27.10
2018,08,06,14,27,27.10
2018,08,06,14,28,27.20
2018,08,06,14,29,27.20
2018,08,06,14,30,27.20
2018,08,06,14,31,27.30
2018,08,06,14,32,27.30
2018,08,06,14,33,27.30
2018,08,06,14,34,27.40
2018,08,06,14,35,27.50
2018,08,06,14,36,27.50
2018,08,06,14,37,27.50
2018,08,06,14,38,27.50
2018,08,06,14,39,27.40
2018,08,06,14,40,27.40
2018,08,06,14,41,27.40
2018,08,06,14,42,27.40
2018,08,06,14,43,27.50
2018,08,06,14,44,27.50
2018,08,06,14,45,27.60
2018,08,06,14,46,27.60
2018,08,06,14,47,27.60
2018,08,06,14,48,27.60
2018,08,06,14,49,27.60
2018,08,06,14,50,27.60
2018,08,06,14,51,27.50
2018,08,06,14,52,27.50
2018,08,06,14,53,27.60
2018,08,06,14,54,27.70
2018,08,06,14,55,27.80
2018,08,06,14,56,27.90
2018,08,06,14,57,27.90
2018,08,06,14,58,27.90
2018,08,06,14,59,27.90
2018,08,06,15,00,28.00
2018,08,06,15,01,28.00
2018,08,06,15,02,28.10
2018,08,06,15,03,28.00
2018,08,06,15,04,28.00
2018,08,06,15,05,27.90
2018,08,06,15,06,27.70
2018,08,06,15,07,27.60
2018,08,06,15,08,27.60
2018,08,06,15,09,27.50
2018,08,06,15,10,27.50
2018,08,06,15,11,27.50
2018,08,06,15,12,27.40
2018,08,06,15,13,27.50
2018,08,06,15,14,27.40
2018,08,06,15,15,27.40
2018,08,06,15,16,27.40
2018,08,06,15,17,27.40
2018,08,06,15,18,27.40
2018,08,06,15,19,27.40
2018,08,06,15,20,27.40
2018,08,06,15,21,27.40
2018,08,06,15,22,27.40
2018,08,06,15,23,27.40
2018,08,06,15,24,27.40
2018,08,06,15,25,27.40
2018,08,06,15,26,27.40
2018,08,06,15,27,27.40
2018,08,06,15,28,27.40
2018,08,06,15,29,27.40
2018,08,06,15,30,27.50
2018,08,06,15,31,27.60
2018,08,06,15,32,27.60
2018,08,06,15,33,27.70
2018,08,06,15,34,27.70
2018,08,06,15,35,27.70
2018,08,06,15,36,27.80
2018,08,06,15,37,27.90
2018,08,06,15,38,28.00
2018,08,06,15,39,28.00
2018,08,06,15,40,28.00
2018,08,06,15,41,28.10
2018,08,06,15,42,28.00
2018,08,06,15,43,28.00
2018,08,06,15,44,28.00
2018,08,06,15,45,28.00
2018,08,06,15,46,28.00
2018,08,06,15,47,28.00
2018,08,06,15,48,28.00
2018,08,06,15,49,28.00
2018,08,06,15,50,28.00
2018,08,06,15,51,28.00
2018,08,06,15,52,28.00
2018,08,06,15,53,27.90
2018,08,06,15,54,27.90
2018,08,06,15,55,27.90
2018,08,06,15,56,27.90
2018,08,06,15,57,27.90
2018,08,06,15,58,28.00
2018,08,06,15,59,28.10
2018,08,06,16,00,28.30
2018,08,06,16,01,28.40
2018,08,06,16,02,28.40
2018,08,06,16,03,28.40
2018,08,06,16,04,28.40
2018,08,06,16,05,28.40
2018,08,06,16,06,28.40
2018,08,06,16,07,28.30
2018,08,06,16,08,28.30
2018,08,06,16,09,28.30
2018,08,06,16,10,28.30
2018,08,06,16,11,28.30
2018,08,06,16,12,28.30
2018,08,06,16,13,28.30
2018,08,06,16,14,28.30
2018,08,06,16,15,28.30
2018,08,06,16,16,28.30
2018,08,06,16,17,28.30
2018,08,06,16,18,28.20
2018,08,06,16,19,28.30
2018,08,06,16,20,28.30
2018,08,06,16,21,28.30
2018,08,06,16,22,28.40
2018,08,06,16,23,28.40
2018,08,06,16,24,28.50
2018,08,06,16,25,28.60
2018,08,06,16,26,28.70
2018,08,06,16,27,28.80
2018,08,06,16,28,28.80
2018,08,06,16,29,28.70
2018,08,06,16,30,28.70
2018,08,06,16,31,28.70
2018,08,06,16,32,28.70
2018,08,06,16,33,28.70
2018,08,06,16,34,28.60
2018,08,06,16,35,28.60
2018,08,06,16,36,28.60
2018,08,06,16,37,28.70
2018,08,06,16,38,28.70
2018,08,06,16,39,28.70
2018,08,06,16,40,28.70
2018,08,06,16,41,28.60
2018,08,06,16,42,28.60
2018,08,06,16,43,28.60
2018,08,06,16,44,28.60
2018,08,06,16,45,28.60
2018,08,06,16,46,28.60
2018,08,06,16,47,28.50
2018,08,06,16,48,28.50
2018,08,06,16,49,28.40
2018,08,06,16,50,28.50
2018,08,06,16,51,28.50
2018,08,06,16,52,28.60
2018,08,06,16,53,28.60
2018,08,06,16,54,28.70
2018,08,06,16,55,28.70
2018,08,06,16,56,28.80
2018,08,06,16,57,28.80
2018,08,06,16,58,28.80
2018,08,06,16,59,28.80
2018,08,06,17,00,28.80
2018,08,06,17,01,28.80
2018,08,06,17,02,28.90
2018,08,06,17,03,28.90
2018,08,06,17,04,28.90
2018,08,06,17,05,28.90
2018,08,06,17,06,28.90
2018,08,06,17,07,29.00
2018,08,06,17,08,29.00
2018,08,06,17,09,29.10
2018,08,06,17,10,29.10
2018,08,06,17,11,29.10
2018,08,06,17,12,29.00
2018,08,06,17,13,29.00
2018,08,06,17,14,29.00
2018,08,06,17,15,29.00
2018,08,06,17,16,29.00
2018,08,06,17,17,29.00
2018,08,06,17,18,29.00
2018,08,06,17,19,29.00